| time (UTC) | temp F | wind direction | speed MPH | gust MPH | rain 1hr in | rain 24hr in | rain mn in | humidity % | barometer mb |
| 20260506090712 | 49 | 331 | 2.0 | 4.0 | 0.00 | 0.02 | 0.00 | 66 | 1007.7 |
| 20260506090502 | 49 | 327 | 2.0 | 5.0 | 0.00 | 0.02 | 0.00 | 65 | 1007.7 |
| 20260506090212 | 49 | 318 | 2.0 | 5.0 | 0.00 | 0.02 | 0.00 | 65 | 1007.8 |
| 20260506090023 | 49 | 318 | 2.0 | 5.0 | 0.00 | 0.02 | 0.00 | 64 | 1007.7 |
| 20260506085712 | 49 | 325 | 3.0 | 8.0 | 0.00 | 0.02 | 0.00 | 63 | 1008.0 |
| 20260506085501 | 49 | 325 | 4.0 | 9.0 | 0.00 | 0.02 | 0.00 | 63 | 1008.0 |
| 20260506085212 | 50 | 323 | 4.0 | 9.0 | 0.00 | 0.02 | 0.00 | 62 | 1008.0 |
| 20260506085002 | 50 | 322 | 4.0 | 9.0 | 0.00 | 0.02 | 0.00 | 61 | 1008.0 |
| 20260506084712 | 50 | 318 | 3.0 | 9.0 | 0.00 | 0.02 | 0.00 | 61 | 1007.7 |
| 20260506084502 | 50 | 317 | 3.0 | 8.0 | 0.00 | 0.02 | 0.00 | 61 | 1007.6 |
| 20260506084212 | 50 | 320 | 2.0 | 8.0 | 0.00 | 0.02 | 0.00 | 60 | 1007.5 |
| 20260506084002 | 50 | 317 | 2.0 | 7.0 | 0.00 | 0.02 | 0.00 | 60 | 1007.5 |
| 20260506083712 | 50 | 312 | 2.0 | 7.0 | 0.00 | 0.02 | 0.00 | 60 | 1007.5 |
| 20260506083502 | 50 | 315 | 3.0 | 7.0 | 0.00 | 0.02 | 0.00 | 59 | 1007.5 |
| 20260506083212 | 50 | 318 | 3.0 | 7.0 | 0.00 | 0.02 | 0.00 | 59 | 1007.6 |
| 20260506083023 | 50 | 321 | 3.0 | 9.0 | 0.00 | 0.02 | 0.00 | 59 | 1007.5 |
| 20260506082712 | 50 | 326 | 3.0 | 9.0 | 0.00 | 0.02 | 0.00 | 58 | 1007.5 |
| 20260506082502 | 50 | 323 | 3.0 | 9.0 | 0.00 | 0.02 | 0.00 | 58 | 1007.5 |
| 20260506082212 | 50 | 315 | 3.0 | 9.0 | 0.00 | 0.02 | 0.00 | 58 | 1007.5 |
| 20260506082003 | 50 | 313 | 3.0 | 8.0 | 0.00 | 0.02 | 0.00 | 58 | 1007.7 |
| 20260506081712 | 50 | 308 | 3.0 | 8.0 | 0.00 | 0.02 | 0.00 | 59 | 1007.6 |
| 20260506081502 | 50 | 308 | 3.0 | 8.0 | 0.00 | 0.02 | 0.00 | 58 | 1007.7 |
| 20260506081212 | 50 | 307 | 3.0 | 8.0 | 0.00 | 0.02 | 0.00 | 59 | 1007.6 |
| 20260506081002 | 51 | 304 | 3.0 | 7.0 | 0.00 | 0.02 | 0.00 | 58 | 1007.5 |
| 20260506080712 | 51 | 302 | 3.0 | 6.0 | 0.00 | 0.02 | 0.00 | 59 | 1007.8 |
| 20260506080502 | 51 | 300 | 3.0 | 7.0 | 0.00 | 0.02 | 0.00 | 59 | 1007.7 |
| 20260506080211 | 51 | 299 | 3.0 | 7.0 | 0.00 | 0.02 | 0.00 | 60 | 1007.8 |
| 20260506073502 | 50 | 296 | 2.0 | 5.0 | 0.00 | 0.02 | 0.00 | 60 | 1007.4 |
| 20260506073211 | 50 | 295 | 3.0 | 7.0 | 0.00 | 0.02 | 0.00 | 60 | 1007.4 |
| 20260506073002 | 50 | 292 | 3.0 | 7.0 | 0.00 | 0.02 | 0.00 | 60 | 1007.4 |
| 20260506072711 | 50 | 291 | 3.0 | 7.0 | 0.00 | 0.02 | 0.00 | 60 | 1007.5 |
| 20260506072501 | 50 | 286 | 3.0 | 7.0 | 0.00 | 0.02 | 0.00 | 61 | 1007.5 |
| 20260506072211 | 50 | 269 | 3.0 | 7.0 | 0.00 | 0.02 | 0.00 | 61 | 1007.5 |
| 20260506072002 | 50 | 257 | 3.0 | 7.0 | 0.00 | 0.02 | 0.00 | 63 | 1007.5 |
| 20260506071711 | 50 | 239 | 2.0 | 7.0 | 0.00 | 0.02 | 0.00 | 63 | 1007.7 |
| 20260506071523 | 50 | 230 | 2.0 | 4.0 | 0.00 | 0.02 | 0.00 | 65 | 1007.7 |
| 20260506071211 | 50 | 228 | 2.0 | 4.0 | 0.00 | 0.02 | 0.00 | 68 | 1007.6 |
| 20260506071002 | 50 | 228 | 2.0 | 4.0 | 0.00 | 0.02 | 0.00 | 68 | 1007.6 |
| 20260506070711 | 50 | 228 | 1.0 | 4.0 | 0.00 | 0.02 | 0.00 | 70 | 1007.5 |
| 20260506070502 | 50 | 228 | 1.0 | 3.0 | 0.00 | 0.02 | 0.00 | 71 | 1007.4 |
| 20260506070211 | 50 | 228 | 1.0 | 3.0 | 0.00 | 0.02 | 0.00 | 71 | 1007.3 |
| 20260506062502 | 50 | 228 | 2.0 | 4.0 | 0.00 | 0.02 | 0.00 | 71 | 1007.8 |
| 20260506062210 | 50 | 229 | 2.0 | 4.0 | 0.00 | 0.02 | 0.00 | 70 | 1007.9 |
| 20260506062002 | 50 | 230 | 1.0 | 4.0 | 0.00 | 0.02 | 0.00 | 70 | 1007.9 |
| 20260506061710 | 50 | 231 | 2.0 | 4.0 | 0.00 | 0.02 | 0.00 | 70 | 1007.8 |
| 20260506061502 | 50 | 232 | 1.0 | 4.0 | 0.00 | 0.02 | 0.00 | 70 | 1007.9 |
| 20260506061210 | 50 | 232 | 1.0 | 4.0 | 0.00 | 0.02 | 0.00 | 70 | 1007.7 |
| 20260506061024 | 50 | 232 | 1.0 | 4.0 | 0.00 | 0.02 | 0.00 | 70 | 1007.7 |
| 20260506060710 | 50 | 231 | 1.0 | 3.0 | 0.00 | 0.02 | 0.00 | 69 | 1007.7 |
| 20260506060502 | 50 | 230 | 1.0 | 4.0 | 0.00 | 0.02 | 0.00 | 69 | 1007.7 |
| 20260506060210 | 50 | 229 | 2.0 | 4.0 | 0.00 | 0.02 | 0.00 | 68 | 1007.7 |
| 20260506051148 | 52 | 250 | 2.0 | 4.0 | 0.00 | 0.05 | 0.00 | 55 | 1007.9 |
| 20260506051003 | 52 | 251 | 2.0 | 4.0 | 0.00 | 0.06 | 0.00 | 55 | 1007.9 |
| 20260506050648 | 52 | 255 | 1.0 | 4.0 | 0.00 | 0.07 | 0.00 | 55 | 1007.8 |
| 20260506050503 | 52 | 257 | 1.0 | 4.0 | 0.00 | 0.07 | 0.00 | 54 | 1007.9 |
| 20260506050148 | 52 | 263 | 1.0 | 3.0 | 0.00 | 0.07 | 0.00 | 55 | 1007.8 |
| 20260506045003 | 52 | 264 | 2.0 | 4.0 | 0.00 | 0.07 | 0.00 | 54 | 1007.9 |
| 20260506044648 | 52 | 270 | 2.0 | 4.0 | 0.00 | 0.07 | 0.00 | 54 | 1007.8 |
| 20260506044504 | 52 | 274 | 2.0 | 4.0 | 0.00 | 0.07 | 0.00 | 53 | 1007.8 |
| 20260506044147 | 52 | 291 | 1.0 | 4.0 | 0.00 | 0.07 | 0.00 | 54 | 1007.7 |
| 20260506044003 | 52 | 296 | 1.0 | 4.0 | 0.00 | 0.07 | 0.00 | 53 | 1007.6 |
| 20260506043647 | 53 | 296 | 2.0 | 4.0 | 0.00 | 0.07 | 0.00 | 54 | 1007.7 |
| 20260506043524 | 53 | 296 | 2.0 | 4.0 | 0.00 | 0.07 | 0.00 | 54 | 1007.7 |
| 20260506043147 | 53 | 290 | 3.0 | 6.0 | 0.00 | 0.07 | 0.00 | 53 | 1007.6 |
| 20260506043024 | 52 | 289 | 3.0 | 6.0 | 0.00 | 0.07 | 0.00 | 53 | 1007.6 |
| 20260506042647 | 53 | 276 | 3.0 | 6.0 | 0.00 | 0.07 | 0.00 | 53 | 1007.6 |
| 20260506042502 | 53 | 273 | 3.0 | 6.0 | 0.00 | 0.07 | 0.00 | 53 | 1007.6 |
| 20260506042147 | 53 | 262 | 2.0 | 4.0 | 0.00 | 0.07 | 0.00 | 54 | 1007.6 |
| 20260506042003 | 53 | 262 | 2.0 | 4.0 | 0.00 | 0.07 | 0.00 | 54 | 1007.6 |
| 20260506041647 | 53 | 261 | 1.0 | 4.0 | 0.00 | 0.07 | 0.00 | 54 | 1007.6 |
| 20260506041503 | 53 | 261 | 1.0 | 4.0 | 0.00 | 0.07 | 0.00 | 54 | 1007.6 |
| 20260506041147 | 53 | 261 | 0.0 | 2.0 | 0.00 | 0.07 | 0.00 | 54 | 1007.5 |
| 20260506041003 | 53 | 261 | 0.0 | 1.0 | 0.00 | 0.07 | 0.00 | 54 | 1007.5 |
| 20260506040647 | 53 | 261 | 1.0 | 2.0 | 0.00 | 0.07 | 0.00 | 53 | 1007.6 |
| 20260506040524 | 53 | 261 | 1.0 | 2.0 | 0.00 | 0.07 | 0.00 | 53 | 1007.6 |
| 20260506040147 | 53 | 261 | 1.0 | 3.0 | 0.00 | 0.07 | 0.00 | 54 | 1007.8 |
| 20260506040003 | 53 | 261 | 1.0 | 3.0 | 0.00 | 0.07 | 0.00 | 53 | 1007.8 |
| 20260506035647 | 53 | 261 | 2.0 | 3.0 | 0.00 | 0.07 | 0.07 | 53 | 1007.7 |
| 20260506035503 | 53 | 261 | 2.0 | 4.0 | 0.00 | 0.07 | 0.07 | 53 | 1007.8 |
| 20260506035147 | 53 | 261 | 1.0 | 4.0 | 0.00 | 0.07 | 0.07 | 53 | 1007.8 |
| 20260506035003 | 53 | 261 | 1.0 | 4.0 | 0.00 | 0.07 | 0.07 | 53 | 1007.8 |
| 20260506034647 | 53 | 261 | 1.0 | 4.0 | 0.00 | 0.07 | 0.07 | 53 | 1007.8 |
| 20260506034503 | 53 | 261 | 1.0 | 4.0 | 0.00 | 0.07 | 0.07 | 54 | 1007.8 |
| 20260506034147 | 53 | 261 | 1.0 | 4.0 | 0.00 | 0.07 | 0.07 | 53 | 1007.9 |
| 20260506034024 | 53 | 261 | 1.0 | 4.0 | 0.00 | 0.07 | 0.07 | 53 | 1007.9 |
| 20260506033646 | 53 | 261 | 1.0 | 4.0 | 0.00 | 0.07 | 0.07 | 53 | 1008.1 |
| 20260506033524 | 53 | 261 | 1.0 | 4.0 | 0.00 | 0.07 | 0.07 | 53 | 1008.1 |
| 20260506033146 | 53 | 261 | 2.0 | 4.0 | 0.00 | 0.07 | 0.07 | 53 | 1008.1 |
| 20260506033004 | 53 | 261 | 2.0 | 4.0 | 0.00 | 0.07 | 0.07 | 52 | 1008.1 |
| 20260506032646 | 53 | 261 | 2.0 | 4.0 | 0.00 | 0.07 | 0.07 | 52 | 1008.0 |
| 20260506032503 | 53 | 261 | 2.0 | 4.0 | 0.00 | 0.07 | 0.07 | 52 | 1008.0 |
| 20260506032146 | 54 | 261 | 2.0 | 6.0 | 0.00 | 0.07 | 0.07 | 52 | 1007.9 |
| 20260506032003 | 54 | 261 | 2.0 | 6.0 | 0.00 | 0.07 | 0.07 | 52 | 1007.9 |
| 20260506031646 | 54 | 261 | 2.0 | 6.0 | 0.00 | 0.07 | 0.07 | 52 | 1007.9 |
| 20260506031502 | 54 | 261 | 2.0 | 6.0 | 0.00 | 0.07 | 0.07 | 52 | 1007.9 |
| 20260506031146 | 54 | 265 | 2.0 | 6.0 | 0.00 | 0.07 | 0.07 | 52 | 1007.9 |
| 20260506031003 | 54 | 267 | 2.0 | 6.0 | 0.00 | 0.07 | 0.07 | 52 | 1007.9 |
| 20260506030646 | 54 | 271 | 3.0 | 6.0 | 0.00 | 0.07 | 0.07 | 52 | 1007.9 |
| 20260506030503 | 54 | 272 | 3.0 | 6.0 | 0.00 | 0.07 | 0.07 | 52 | 1008.0 |
| 20260506030146 | 54 | 275 | 3.0 | 7.0 | 0.00 | 0.07 | 0.07 | 52 | 1008.1 |
| 20260506030003 | 54 | 275 | 3.0 | 7.0 | 0.00 | 0.07 | 0.07 | 52 | 1007.9 |
| 20260506025646 | 54 | 271 | 4.0 | 7.0 | 0.00 | 0.07 | 0.07 | 52 | 1007.9 |
| 20260506025504 | 54 | 269 | 4.0 | 7.0 | 0.00 | 0.07 | 0.07 | 51 | 1007.9 |
| 20260506025146 | 54 | 259 | 3.0 | 7.0 | 0.00 | 0.07 | 0.07 | 52 | 1007.9 |
| 20260506025003 | 54 | 256 | 3.0 | 7.0 | 0.00 | 0.07 | 0.07 | 53 | 1007.9 |
| 20260506024646 | 54 | 252 | 3.0 | 8.0 | 0.00 | 0.07 | 0.07 | 52 | 1007.9 |
| 20260506024503 | 54 | 256 | 3.0 | 8.0 | 0.00 | 0.07 | 0.07 | 52 | 1007.9 |
| 20260506024146 | 54 | 260 | 4.0 | 8.0 | 0.00 | 0.07 | 0.07 | 52 | 1007.9 |
| 20260506024024 | 54 | 261 | 4.0 | 8.0 | 0.00 | 0.07 | 0.07 | 52 | 1007.9 |
| 20260506023645 | 54 | 273 | 4.0 | 7.0 | 0.00 | 0.07 | 0.07 | 52 | 1007.9 |
| 20260506023504 | 54 | 274 | 4.0 | 8.0 | 0.00 | 0.07 | 0.07 | 52 | 1007.9 |
| 20260506023145 | 54 | 280 | 3.0 | 8.0 | 0.00 | 0.07 | 0.07 | 53 | 1007.9 |
| 20260506023003 | 54 | 280 | 3.0 | 8.0 | 0.00 | 0.07 | 0.07 | 53 | 1007.9 |
| 20260506022645 | 54 | 274 | 3.0 | 8.0 | 0.00 | 0.07 | 0.07 | 53 | 1007.8 |
| 20260506022503 | 54 | 271 | 3.0 | 8.0 | 0.00 | 0.07 | 0.07 | 54 | 1007.9 |
| 20260506022145 | 54 | 270 | 3.0 | 6.0 | 0.00 | 0.07 | 0.07 | 54 | 1007.8 |
| 20260506022005 | 54 | 270 | 3.0 | 6.0 | 0.00 | 0.07 | 0.07 | 54 | 1007.8 |
| 20260506021645 | 54 | 267 | 3.0 | 6.0 | 0.00 | 0.07 | 0.07 | 53 | 1007.7 |
| 20260506021503 | 54 | 266 | 3.0 | 6.0 | 0.00 | 0.07 | 0.07 | 54 | 1007.7 |
| 20260506021145 | 54 | 262 | 2.0 | 6.0 | 0.00 | 0.07 | 0.07 | 54 | 1007.7 |
| 20260506021024 | 54 | 262 | 2.0 | 6.0 | 0.00 | 0.07 | 0.07 | 55 | 1007.7 |
| 20260506020645 | 54 | 263 | 2.0 | 4.0 | 0.00 | 0.07 | 0.07 | 55 | 1007.5 |
| 20260506020504 | 54 | 264 | 2.0 | 4.0 | 0.00 | 0.07 | 0.07 | 54 | 1007.5 |
| 20260506020145 | 54 | 266 | 2.0 | 7.0 | 0.00 | 0.07 | 0.07 | 54 | 1007.4 |
| 20260506020003 | 54 | 267 | 2.0 | 7.0 | 0.00 | 0.07 | 0.07 | 55 | 1007.4 |
| 20260506015645 | 54 | 269 | 2.0 | 7.0 | 0.00 | 0.07 | 0.07 | 56 | 1007.4 |
| 20260506015503 | 54 | 269 | 2.0 | 7.0 | 0.00 | 0.07 | 0.07 | 56 | 1007.4 |
| 20260506015145 | 54 | 271 | 2.0 | 4.0 | 0.00 | 0.07 | 0.07 | 56 | 1007.4 |
| 20260506015004 | 54 | 271 | 2.0 | 4.0 | 0.00 | 0.07 | 0.07 | 56 | 1007.4 |
| 20260506014645 | 54 | 271 | 2.0 | 4.0 | 0.00 | 0.07 | 0.07 | 56 | 1007.3 |
| 20260506014503 | 54 | 271 | 2.0 | 4.0 | 0.00 | 0.07 | 0.07 | 56 | 1007.3 |
| 20260506014145 | 54 | 271 | 1.0 | 4.0 | 0.00 | 0.07 | 0.07 | 58 | 1007.3 |
| 20260506014024 | 54 | 271 | 1.0 | 3.0 | 0.00 | 0.07 | 0.07 | 58 | 1007.3 |
| 20260506013645 | 54 | 271 | 2.0 | 3.0 | 0.00 | 0.07 | 0.07 | 57 | 1007.3 |
| 20260506013504 | 54 | 271 | 2.0 | 3.0 | 0.00 | 0.07 | 0.07 | 57 | 1007.3 |
| 20260506013145 | 54 | 271 | 2.0 | 3.0 | 0.00 | 0.07 | 0.07 | 57 | 1007.3 |
| 20260506013004 | 54 | 271 | 2.0 | 3.0 | 0.00 | 0.07 | 0.07 | 57 | 1007.3 |
| 20260506012645 | 55 | 271 | 1.0 | 3.0 | 0.00 | 0.07 | 0.07 | 58 | 1007.2 |
| 20260506012503 | 55 | 271 | 1.0 | 4.0 | 0.00 | 0.07 | 0.07 | 57 | 1007.3 |
| 20260506012145 | 55 | 271 | 2.0 | 4.0 | 0.00 | 0.07 | 0.07 | 57 | 1007.2 |
| 20260506012003 | 55 | 271 | 2.0 | 4.0 | 0.00 | 0.07 | 0.07 | 57 | 1007.1 |
| 20260506011645 | 55 | 271 | 2.0 | 4.0 | 0.00 | 0.07 | 0.07 | 56 | 1007.2 |
| 20260506011503 | 55 | 272 | 2.0 | 4.0 | 0.00 | 0.07 | 0.07 | 56 | 1007.2 |
| 20260506011145 | 55 | 278 | 3.0 | 6.0 | 0.00 | 0.08 | 0.07 | 57 | 1007.3 |
| 20260506011003 | 55 | 279 | 3.0 | 6.0 | 0.00 | 0.08 | 0.07 | 57 | 1007.3 |
| 20260506010645 | 55 | 282 | 3.0 | 8.0 | 0.00 | 0.08 | 0.07 | 56 | 1007.3 |
| 20260506010503 | 55 | 280 | 3.0 | 8.0 | 0.00 | 0.08 | 0.07 | 57 | 1007.3 |
| 20260506010144 | 55 | 273 | 3.0 | 8.0 | 0.00 | 0.08 | 0.07 | 57 | 1007.4 |
| 20260506010004 | 55 | 273 | 3.0 | 8.0 | 0.00 | 0.08 | 0.07 | 57 | 1007.4 |
| 20260506005644 | 55 | 268 | 3.0 | 8.0 | 0.00 | 0.08 | 0.07 | 57 | 1007.2 |
| 20260506005503 | 55 | 268 | 3.0 | 8.0 | 0.00 | 0.08 | 0.07 | 57 | 1007.2 |
| 20260506005144 | 55 | 266 | 3.0 | 8.0 | 0.00 | 0.08 | 0.07 | 58 | 1007.3 |
| 20260506005003 | 55 | 265 | 3.0 | 8.0 | 0.00 | 0.08 | 0.07 | 57 | 1007.3 |
| 20260506004644 | 55 | 263 | 3.0 | 7.0 | 0.00 | 0.08 | 0.07 | 58 | 1007.3 |
| 20260506004504 | 55 | 265 | 3.0 | 7.0 | 0.00 | 0.08 | 0.07 | 58 | 1007.3 |
| 20260506004144 | 55 | 270 | 4.0 | 8.0 | 0.00 | 0.08 | 0.07 | 58 | 1007.4 |
| 20260506004004 | 55 | 270 | 4.0 | 8.0 | 0.00 | 0.08 | 0.07 | 58 | 1007.4 |
| 20260506003614 | 55 | 273 | 4.0 | 8.0 | 0.00 | 0.08 | 0.07 | 58 | 1007.4 |
| 20260506003501 | 55 | 273 | 4.0 | 8.0 | 0.00 | 0.08 | 0.07 | 58 | 1007.4 |
| 20260506003114 | 55 | 272 | 5.0 | 9.0 | 0.00 | 0.08 | 0.07 | 58 | 1007.3 |
| 20260506003023 | 55 | 273 | 5.0 | 10.0 | 0.00 | 0.08 | 0.07 | 58 | 1007.3 |
| 20260506002614 | 55 | 273 | 5.0 | 10.0 | 0.00 | 0.08 | 0.07 | 59 | 1007.2 |
| 20260506002501 | 55 | 274 | 5.0 | 10.0 | 0.00 | 0.08 | 0.07 | 59 | 1007.1 |
| 20260506002114 | 56 | 275 | 6.0 | 11.0 | 0.00 | 0.08 | 0.07 | 59 | 1007.1 |
| 20260506002023 | 56 | 273 | 6.0 | 11.0 | 0.00 | 0.08 | 0.07 | 59 | 1007.1 |
| 20260506001614 | 56 | 269 | 5.0 | 11.0 | 0.00 | 0.08 | 0.07 | 61 | 1007.0 |
| 20260506001501 | 56 | 267 | 5.0 | 11.0 | 0.00 | 0.08 | 0.07 | 61 | 1007.0 |
| 20260506001114 | 56 | 258 | 2.0 | 10.0 | 0.00 | 0.08 | 0.07 | 63 | 1006.8 |
| 20260506001001 | 56 | 262 | 2.0 | 10.0 | 0.00 | 0.08 | 0.07 | 63 | 1006.8 |
| 20260506000614 | 56 | 248 | 1.0 | 4.0 | 0.00 | 0.08 | 0.07 | 67 | 1006.8 |
| 20260506000522 | 56 | 248 | 1.0 | 4.0 | 0.00 | 0.08 | 0.07 | 68 | 1006.8 |
| 20260506000114 | 56 | 248 | 2.0 | 3.0 | 0.00 | 0.09 | 0.07 | 67 | 1006.7 |
| 20260506000001 | 56 | 248 | 2.0 | 4.0 | 0.00 | 0.10 | 0.07 | 67 | 1006.6 |
| 20260505235614 | 56 | 248 | 2.0 | 4.0 | 0.00 | 0.11 | 0.07 | 67 | 1006.5 |
| 20260505235501 | 56 | 248 | 2.0 | 4.0 | 0.00 | 0.11 | 0.07 | 67 | 1006.5 |
| 20260505235114 | 56 | 249 | 2.0 | 7.0 | 0.00 | 0.11 | 0.07 | 67 | 1006.5 |
| 20260505235023 | 56 | 249 | 2.0 | 7.0 | 0.00 | 0.11 | 0.07 | 67 | 1006.5 |
| 20260505234614 | 56 | 250 | 3.0 | 7.0 | 0.00 | 0.11 | 0.07 | 67 | 1006.6 |
| 20260505234522 | 56 | 252 | 3.0 | 7.0 | 0.00 | 0.11 | 0.07 | 67 | 1006.6 |
| 20260505234113 | 56 | 261 | 3.0 | 7.0 | 0.00 | 0.11 | 0.07 | 67 | 1006.4 |
| 20260505234001 | 56 | 263 | 3.0 | 7.0 | 0.00 | 0.11 | 0.07 | 67 | 1006.4 |
| 20260505233613 | 56 | 274 | 2.0 | 6.0 | 0.00 | 0.11 | 0.07 | 67 | 1006.5 |
| 20260505233522 | 56 | 274 | 2.0 | 6.0 | 0.00 | 0.11 | 0.07 | 67 | 1006.5 |
| 20260505233113 | 56 | 274 | 2.0 | 4.0 | 0.00 | 0.11 | 0.07 | 67 | 1006.4 |
| 20260505233001 | 56 | 275 | 2.0 | 4.0 | 0.00 | 0.11 | 0.07 | 66 | 1006.4 |
| 20260505232613 | 56 | 273 | 2.0 | 5.0 | 0.00 | 0.11 | 0.07 | 67 | 1006.4 |
| 20260505232502 | 56 | 274 | 3.0 | 6.0 | 0.00 | 0.11 | 0.07 | 67 | 1006.4 |
| 20260505232113 | 56 | 253 | 3.0 | 7.0 | 0.00 | 0.11 | 0.07 | 67 | 1006.4 |
| 20260505232001 | 56 | 251 | 3.0 | 7.0 | 0.00 | 0.11 | 0.07 | 67 | 1006.4 |
| 20260505231613 | 56 | 251 | 3.0 | 9.0 | 0.00 | 0.11 | 0.07 | 66 | 1006.4 |
| 20260505231502 | 56 | 249 | 3.0 | 9.0 | 0.00 | 0.11 | 0.07 | 66 | 1006.4 |
| 20260505231113 | 56 | 263 | 3.0 | 9.0 | 0.00 | 0.11 | 0.07 | 66 | 1006.5 |
| 20260505231002 | 56 | 266 | 3.0 | 9.0 | 0.00 | 0.11 | 0.07 | 66 | 1006.5 |
| 20260505230613 | 56 | 270 | 3.0 | 7.0 | 0.00 | 0.11 | 0.07 | 66 | 1006.5 |
| 20260505230501 | 56 | 271 | 3.0 | 7.0 | 0.00 | 0.11 | 0.07 | 66 | 1006.4 |
| 20260505230113 | 56 | 277 | 3.0 | 7.0 | 0.00 | 0.11 | 0.07 | 66 | 1006.4 |
| 20260505230001 | 56 | 271 | 3.0 | 8.0 | 0.00 | 0.11 | 0.07 | 66 | 1006.5 |
| 20260505225613 | 56 | 261 | 3.0 | 8.0 | 0.00 | 0.11 | 0.07 | 66 | 1006.5 |
| 20260505225502 | 56 | 260 | 3.0 | 8.0 | 0.00 | 0.11 | 0.07 | 66 | 1006.5 |
| 20260505225113 | 56 | 237 | 3.0 | 8.0 | 0.00 | 0.11 | 0.07 | 66 | 1006.6 |
| 20260505225001 | 56 | 233 | 3.0 | 8.0 | 0.00 | 0.11 | 0.07 | 66 | 1006.6 |
| 20260505224613 | 57 | 244 | 3.0 | 6.0 | 0.00 | 0.11 | 0.07 | 66 | 1006.7 |
| 20260505224501 | 57 | 249 | 3.0 | 6.0 | 0.00 | 0.11 | 0.07 | 66 | 1006.7 |
| 20260505224112 | 57 | 282 | 4.0 | 10.0 | 0.00 | 0.11 | 0.07 | 66 | 1006.7 |
| 20260505224002 | 57 | 286 | 4.0 | 10.0 | 0.00 | 0.11 | 0.07 | 66 | 1006.8 |
| 20260505223612 | 57 | 277 | 5.0 | 10.0 | 0.00 | 0.11 | 0.07 | 65 | 1006.8 |
| 20260505223502 | 57 | 275 | 5.0 | 10.0 | 0.00 | 0.11 | 0.07 | 65 | 1006.8 |
| 20260505223112 | 57 | 256 | 4.0 | 9.0 | 0.00 | 0.11 | 0.07 | 66 | 1006.8 |
| 20260505223001 | 57 | 252 | 3.0 | 9.0 | 0.00 | 0.11 | 0.07 | 66 | 1006.8 |
| 20260505222612 | 57 | 253 | 3.0 | 9.0 | 0.00 | 0.11 | 0.07 | 66 | 1006.8 |
| 20260505222501 | 57 | 249 | 3.0 | 8.0 | 0.00 | 0.11 | 0.07 | 66 | 1006.8 |
| 20260505222112 | 57 | 260 | 4.0 | 10.0 | 0.00 | 0.11 | 0.07 | 66 | 1006.7 |
| 20260505222001 | 57 | 262 | 4.0 | 10.0 | 0.00 | 0.11 | 0.07 | 66 | 1006.7 |
| 20260505221612 | 57 | 263 | 5.0 | 11.0 | 0.00 | 0.11 | 0.07 | 66 | 1006.6 |
| 20260505221501 | 57 | 264 | 5.0 | 11.0 | 0.00 | 0.11 | 0.07 | 65 | 1006.6 |
| 20260505221112 | 57 | 262 | 4.0 | 11.0 | 0.00 | 0.11 | 0.07 | 66 | 1006.8 |
| 20260505221022 | 57 | 261 | 4.0 | 11.0 | 0.00 | 0.11 | 0.07 | 65 | 1006.8 |
| 20260505220612 | 57 | 264 | 3.0 | 9.0 | 0.00 | 0.11 | 0.07 | 65 | 1006.9 |
| 20260505220502 | 57 | 264 | 3.0 | 9.0 | 0.00 | 0.11 | 0.07 | 65 | 1006.9 |
| 20260505220112 | 57 | 264 | 4.0 | 7.0 | 0.00 | 0.11 | 0.07 | 65 | 1006.8 |
| 20260505220001 | 57 | 262 | 4.0 | 8.0 | 0.00 | 0.11 | 0.07 | 65 | 1006.8 |
| 20260505215612 | 57 | 267 | 4.0 | 10.0 | 0.00 | 0.11 | 0.07 | 65 | 1006.9 |
| 20260505215502 | 57 | 269 | 4.0 | 10.0 | 0.00 | 0.11 | 0.07 | 65 | 1006.9 |
| 20260505215112 | 57 | 274 | 4.0 | 10.0 | 0.00 | 0.11 | 0.07 | 65 | 1006.9 |
| 20260505215001 | 57 | 277 | 4.0 | 10.0 | 0.00 | 0.11 | 0.07 | 65 | 1006.9 |
| 20260505214612 | 57 | 282 | 4.0 | 10.0 | 0.00 | 0.11 | 0.07 | 65 | 1006.9 |
| 20260505214501 | 57 | 281 | 4.0 | 10.0 | 0.00 | 0.11 | 0.07 | 65 | 1006.9 |
| 20260505214111 | 57 | 279 | 4.0 | 10.0 | 0.00 | 0.11 | 0.07 | 65 | 1006.8 |
| 20260505214001 | 57 | 276 | 4.0 | 10.0 | 0.00 | 0.11 | 0.07 | 66 | 1006.8 |
| 20260505213611 | 57 | 268 | 5.0 | 9.0 | 0.00 | 0.11 | 0.07 | 66 | 1006.7 |
| 20260505213502 | 58 | 269 | 5.0 | 9.0 | 0.00 | 0.11 | 0.07 | 65 | 1006.7 |
| 20260505213111 | 58 | 268 | 4.0 | 9.0 | 0.00 | 0.11 | 0.07 | 65 | 1006.7 |
| 20260505213002 | 58 | 271 | 4.0 | 9.0 | 0.00 | 0.11 | 0.07 | 65 | 1006.6 |
| 20260505212611 | 58 | 262 | 4.0 | 9.0 | 0.00 | 0.11 | 0.07 | 66 | 1006.6 |
| 20260505212522 | 58 | 258 | 4.0 | 9.0 | 0.00 | 0.11 | 0.07 | 66 | 1006.5 |
| 20260505212111 | 57 | 253 | 5.0 | 10.0 | 0.00 | 0.11 | 0.07 | 65 | 1006.6 |
| 20260505212023 | 58 | 251 | 5.0 | 10.0 | 0.00 | 0.11 | 0.07 | 66 | 1006.5 |
| 20260505211611 | 57 | 257 | 5.0 | 12.0 | 0.00 | 0.11 | 0.07 | 66 | 1006.5 |
| 20260505211501 | 57 | 258 | 5.0 | 12.0 | 0.00 | 0.11 | 0.07 | 66 | 1006.5 |
| 20260505211111 | 57 | 258 | 5.0 | 12.0 | 0.00 | 0.11 | 0.07 | 66 | 1006.5 |
| 20260505211023 | 57 | 259 | 5.0 | 12.0 | 0.00 | 0.11 | 0.07 | 66 | 1006.5 |
| 20260505210611 | 57 | 253 | 4.0 | 10.0 | 0.00 | 0.11 | 0.07 | 67 | 1006.5 |
| 20260505210501 | 57 | 250 | 4.0 | 10.0 | 0.00 | 0.11 | 0.07 | 67 | 1006.6 |
| 20260505210111 | 57 | 238 | 3.0 | 7.0 | 0.00 | 0.11 | 0.07 | 68 | 1006.7 |
| 20260505210001 | 57 | 234 | 3.0 | 7.0 | 0.00 | 0.11 | 0.07 | 68 | 1006.8 |
| 20260505205611 | 57 | 225 | 4.0 | 9.0 | 0.00 | 0.11 | 0.07 | 68 | 1006.8 |
| 20260505205523 | 57 | 225 | 4.0 | 9.0 | 0.00 | 0.11 | 0.07 | 67 | 1006.8 |
| 20260505205111 | 57 | 226 | 4.0 | 9.0 | 0.00 | 0.11 | 0.07 | 67 | 1006.9 |
| 20260505205001 | 57 | 234 | 4.0 | 9.0 | 0.00 | 0.11 | 0.07 | 68 | 1006.9 |
| 20260505204611 | 57 | 247 | 4.0 | 9.0 | 0.00 | 0.11 | 0.07 | 68 | 1006.9 |
| 20260505204501 | 57 | 249 | 4.0 | 9.0 | 0.00 | 0.11 | 0.07 | 68 | 1006.9 |
| 20260505204111 | 57 | 252 | 4.0 | 9.0 | 0.00 | 0.11 | 0.07 | 68 | 1006.8 |
| 20260505204002 | 56 | 248 | 4.0 | 9.0 | 0.00 | 0.11 | 0.07 | 68 | 1006.8 |
| 20260505203610 | 56 | 251 | 4.0 | 9.0 | 0.00 | 0.11 | 0.07 | 68 | 1006.9 |
| 20260505203502 | 56 | 253 | 4.0 | 9.0 | 0.00 | 0.11 | 0.07 | 68 | 1006.9 |
| 20260505203110 | 56 | 259 | 4.0 | 9.0 | 0.00 | 0.11 | 0.07 | 69 | 1006.8 |
| 20260505203002 | 56 | 261 | 4.0 | 9.0 | 0.00 | 0.11 | 0.07 | 68 | 1006.8 |
| 20260505202610 | 56 | 259 | 4.0 | 10.0 | 0.00 | 0.11 | 0.07 | 69 | 1006.9 |
| 20260505202501 | 56 | 257 | 4.0 | 10.0 | 0.00 | 0.11 | 0.07 | 69 | 1006.9 |
| 20260505202110 | 56 | 255 | 3.0 | 10.0 | 0.00 | 0.11 | 0.07 | 70 | 1007.0 |
| 20260505202002 | 56 | 252 | 3.0 | 10.0 | 0.00 | 0.11 | 0.07 | 70 | 1007.0 |
| 20260505201610 | 56 | 237 | 3.0 | 7.0 | 0.00 | 0.11 | 0.07 | 70 | 1006.9 |
| 20260505201502 | 56 | 241 | 3.0 | 7.0 | 0.00 | 0.11 | 0.07 | 70 | 1006.8 |
| 20260505201110 | 56 | 246 | 3.0 | 9.0 | 0.00 | 0.11 | 0.07 | 69 | 1006.8 |
| 20260505201002 | 56 | 251 | 3.0 | 9.0 | 0.00 | 0.11 | 0.07 | 69 | 1006.8 |
| 20260505200610 | 56 | 272 | 3.0 | 9.0 | 0.00 | 0.11 | 0.07 | 70 | 1006.8 |
| 20260505200501 | 56 | 270 | 3.0 | 9.0 | 0.00 | 0.11 | 0.07 | 71 | 1006.8 |
| 20260505200110 | 55 | 265 | 3.0 | 7.0 | 0.00 | 0.11 | 0.07 | 70 | 1006.8 |
| 20260505200002 | 55 | 263 | 3.0 | 7.0 | 0.00 | 0.11 | 0.07 | 70 | 1006.7 |
| 20260505195610 | 55 | 242 | 3.0 | 7.0 | 0.00 | 0.11 | 0.07 | 70 | 1006.8 |
| 20260505195502 | 55 | 238 | 3.0 | 7.0 | 0.00 | 0.11 | 0.07 | 70 | 1006.8 |
| 20260505195110 | 55 | 237 | 3.0 | 10.0 | 0.00 | 0.11 | 0.07 | 71 | 1007.0 |
| 20260505195022 | 55 | 236 | 3.0 | 10.0 | 0.00 | 0.11 | 0.07 | 70 | 1006.9 |
| 20260505194610 | 55 | 234 | 3.0 | 10.0 | 0.00 | 0.11 | 0.07 | 70 | 1006.9 |
| 20260505194502 | 55 | 232 | 3.0 | 10.0 | 0.00 | 0.11 | 0.07 | 71 | 1006.9 |
| 20260505194110 | 55 | 226 | 3.0 | 7.0 | 0.00 | 0.11 | 0.07 | 71 | 1007.0 |
| 20260505194002 | 55 | 225 | 3.0 | 7.0 | 0.00 | 0.11 | 0.07 | 70 | 1007.0 |
| 20260505193610 | 55 | 226 | 4.0 | 10.0 | 0.00 | 0.11 | 0.07 | 70 | 1007.0 |
| 20260505193523 | 55 | 228 | 4.0 | 10.0 | 0.00 | 0.11 | 0.07 | 70 | 1007.0 |
| 20260505193110 | 55 | 226 | 4.0 | 11.0 | 0.00 | 0.11 | 0.07 | 70 | 1007.1 |
| 20260505193002 | 55 | 225 | 4.0 | 11.0 | 0.00 | 0.11 | 0.07 | 70 | 1007.1 |
| 20260505192609 | 55 | 219 | 4.0 | 11.0 | 0.00 | 0.11 | 0.07 | 71 | 1007.1 |
| 20260505192501 | 55 | 219 | 4.0 | 11.0 | 0.00 | 0.11 | 0.07 | 71 | 1007.1 |
| 20260505192109 | 55 | 233 | 5.0 | 11.0 | 0.00 | 0.11 | 0.07 | 70 | 1007.3 |
| 20260505192002 | 55 | 237 | 5.0 | 11.0 | 0.00 | 0.11 | 0.07 | 71 | 1007.3 |
| 20260505191609 | 55 | 241 | 5.0 | 11.0 | 0.00 | 0.11 | 0.07 | 71 | 1007.3 |
| 20260505191502 | 55 | 241 | 5.0 | 11.0 | 0.00 | 0.11 | 0.07 | 71 | 1007.3 |
| 20260505191109 | 55 | 231 | 5.0 | 11.0 | 0.00 | 0.11 | 0.07 | 71 | 1007.2 |
| 20260505191022 | 55 | 231 | 5.0 | 11.0 | 0.00 | 0.11 | 0.07 | 70 | 1007.2 |
| 20260505190609 | 55 | 240 | 6.0 | 12.0 | 0.00 | 0.11 | 0.07 | 71 | 1007.2 |
| 20260505190502 | 55 | 242 | 6.0 | 15.0 | 0.00 | 0.11 | 0.07 | 70 | 1007.2 |
| 20260505190109 | 55 | 244 | 7.0 | 15.0 | 0.00 | 0.11 | 0.07 | 71 | 1007.1 |
| 20260505190002 | 55 | 241 | 7.0 | 15.0 | 0.00 | 0.11 | 0.07 | 71 | 1007.1 |
| 20260505185609 | 55 | 236 | 5.0 | 15.0 | 0.00 | 0.11 | 0.07 | 72 | 1007.2 |
| 20260505185501 | 55 | 232 | 5.0 | 11.0 | 0.00 | 0.11 | 0.07 | 72 | 1007.0 |
| 20260505185109 | 55 | 225 | 4.0 | 10.0 | 0.00 | 0.11 | 0.07 | 74 | 1006.9 |
| 20260505185003 | 55 | 227 | 4.0 | 10.0 | 0.00 | 0.11 | 0.07 | 74 | 1006.9 |
| 20260505184609 | 55 | 221 | 4.0 | 10.0 | 0.00 | 0.11 | 0.07 | 73 | 1006.9 |
| 20260505184502 | 55 | 220 | 4.0 | 10.0 | 0.00 | 0.11 | 0.07 | 73 | 1006.8 |
| 20260505184109 | 55 | 226 | 3.0 | 9.0 | 0.00 | 0.11 | 0.07 | 75 | 1006.7 |
| 20260505184002 | 55 | 227 | 3.0 | 9.0 | 0.00 | 0.11 | 0.07 | 76 | 1006.7 |
| 20260505183609 | 54 | 225 | 4.0 | 9.0 | 0.01 | 0.11 | 0.07 | 76 | 1006.8 |
| 20260505183501 | 54 | 223 | 4.0 | 9.0 | 0.01 | 0.11 | 0.07 | 76 | 1006.8 |
| 20260505183109 | 54 | 215 | 4.0 | 8.0 | 0.01 | 0.11 | 0.07 | 78 | 1006.7 |
| 20260505183002 | 54 | 214 | 4.0 | 8.0 | 0.01 | 0.11 | 0.07 | 77 | 1006.7 |
| 20260505182609 | 54 | 211 | 4.0 | 8.0 | 0.01 | 0.11 | 0.07 | 79 | 1006.8 |
| 20260505182502 | 54 | 213 | 4.0 | 8.0 | 0.01 | 0.11 | 0.07 | 78 | 1006.7 |
| 20260505182109 | 54 | 223 | 3.0 | 6.0 | 0.01 | 0.11 | 0.07 | 79 | 1006.8 |
| 20260505182001 | 54 | 229 | 3.0 | 6.0 | 0.01 | 0.11 | 0.07 | 80 | 1006.7 |
| 20260505181609 | 53 | 224 | 3.0 | 8.0 | 0.01 | 0.11 | 0.07 | 80 | 1006.6 |
| 20260505181501 | 53 | 223 | 3.0 | 8.0 | 0.01 | 0.11 | 0.07 | 80 | 1006.6 |
| 20260505181108 | 53 | 221 | 3.0 | 8.0 | 0.01 | 0.11 | 0.07 | 79 | 1006.8 |
| 20260505181002 | 53 | 219 | 3.0 | 8.0 | 0.01 | 0.11 | 0.07 | 79 | 1006.8 |
| 20260505180608 | 53 | 230 | 3.0 | 9.0 | 0.02 | 0.11 | 0.07 | 80 | 1006.8 |
| 20260505180501 | 53 | 232 | 3.0 | 11.0 | 0.02 | 0.11 | 0.07 | 80 | 1006.8 |
| 20260505180108 | 53 | 241 | 4.0 | 12.0 | 0.02 | 0.11 | 0.07 | 80 | 1006.8 |
| 20260505180001 | 53 | 239 | 4.0 | 12.0 | 0.02 | 0.11 | 0.07 | 80 | 1006.8 |
| 20260505175608 | 53 | 246 | 4.0 | 12.0 | 0.02 | 0.11 | 0.07 | 81 | 1006.7 |
| 20260505175523 | 53 | 247 | 4.0 | 12.0 | 0.02 | 0.11 | 0.07 | 81 | 1006.7 |
| 20260505175108 | 53 | 243 | 3.0 | 9.0 | 0.02 | 0.11 | 0.07 | 82 | 1006.7 |
| 20260505175003 | 53 | 244 | 3.0 | 9.0 | 0.02 | 0.11 | 0.07 | 82 | 1006.7 |
| 20260505174608 | 53 | 238 | 2.0 | 8.0 | 0.02 | 0.11 | 0.07 | 82 | 1006.7 |
| 20260505174501 | 53 | 240 | 2.0 | 7.0 | 0.02 | 0.11 | 0.07 | 83 | 1006.7 |
| 20260505174108 | 53 | 270 | 2.0 | 7.0 | 0.02 | 0.11 | 0.07 | 83 | 1006.7 |
| 20260505174002 | 53 | 278 | 2.0 | 7.0 | 0.02 | 0.11 | 0.07 | 83 | 1006.7 |
| 20260505173608 | 53 | 295 | 3.0 | 8.0 | 0.01 | 0.10 | 0.06 | 84 | 1006.7 |
| 20260505173502 | 53 | 298 | 3.0 | 8.0 | 0.01 | 0.10 | 0.06 | 84 | 1006.7 |
| 20260505173108 | 53 | 299 | 2.0 | 8.0 | 0.01 | 0.10 | 0.06 | 84 | 1006.7 |
| 20260505173002 | 53 | 302 | 2.0 | 8.0 | 0.01 | 0.10 | 0.06 | 84 | 1006.8 |
| 20260505172608 | 53 | 77 | 0.0 | 3.0 | 0.01 | 0.10 | 0.06 | 83 | 1006.9 |
| 20260505172523 | 53 | 77 | 0.0 | 3.0 | 0.01 | 0.10 | 0.06 | 82 | 1006.9 |
| 20260505172108 | 53 | 77 | 0.0 | 1.0 | 0.01 | 0.10 | 0.06 | 81 | 1006.8 |
| 20260505172002 | 53 | 77 | 0.0 | 2.0 | 0.01 | 0.10 | 0.06 | 81 | 1006.7 |
| 20260505171608 | 53 | 77 | 0.0 | 2.0 | 0.01 | 0.10 | 0.06 | 81 | 1006.7 |
| 20260505171503 | 53 | 77 | 0.0 | 2.0 | 0.01 | 0.10 | 0.06 | 81 | 1006.6 |
| 20260505171108 | 53 | 77 | 1.0 | 2.0 | 0.01 | 0.10 | 0.06 | 80 | 1006.7 |
| 20260505171002 | 53 | 77 | 1.0 | 2.0 | 0.01 | 0.10 | 0.06 | 80 | 1006.7 |
| 20260505170608 | 53 | 77 | 1.0 | 2.0 | 0.00 | 0.09 | 0.05 | 79 | 1006.9 |
| 20260505170502 | 53 | 77 | 1.0 | 2.0 | 0.00 | 0.09 | 0.05 | 78 | 1007.0 |
| 20260505170108 | 53 | 77 | 1.0 | 3.0 | 0.00 | 0.09 | 0.05 | 79 | 1006.9 |
| 20260505170001 | 53 | 77 | 1.0 | 3.0 | 0.00 | 0.09 | 0.05 | 78 | 1006.9 |
| 20260505165608 | 53 | 77 | 2.0 | 3.0 | 0.00 | 0.09 | 0.05 | 78 | 1006.9 |
| 20260505165502 | 53 | 77 | 2.0 | 3.0 | 0.00 | 0.09 | 0.05 | 78 | 1006.9 |
| 20260505165107 | 53 | 77 | 2.0 | 3.0 | 0.00 | 0.09 | 0.05 | 77 | 1006.8 |
| 20260505165002 | 54 | 77 | 2.0 | 3.0 | 0.00 | 0.09 | 0.05 | 77 | 1006.8 |
| 20260505164607 | 54 | 76 | 2.0 | 4.0 | 0.00 | 0.09 | 0.05 | 76 | 1006.6 |
| 20260505164523 | 54 | 76 | 2.0 | 4.0 | 0.00 | 0.09 | 0.05 | 76 | 1006.6 |
| 20260505164107 | 54 | 74 | 2.0 | 4.0 | 0.00 | 0.09 | 0.05 | 76 | 1006.7 |
| 20260505164002 | 54 | 73 | 2.0 | 4.0 | 0.00 | 0.09 | 0.05 | 76 | 1006.7 |
| 20260505163607 | 54 | 71 | 2.0 | 3.0 | 0.00 | 0.09 | 0.05 | 75 | 1006.8 |
| 20260505163502 | 54 | 71 | 2.0 | 3.0 | 0.00 | 0.09 | 0.05 | 74 | 1006.8 |
| 20260505163107 | 54 | 70 | 2.0 | 4.0 | 0.00 | 0.09 | 0.05 | 73 | 1006.6 |
| 20260505163002 | 54 | 70 | 2.0 | 4.0 | 0.00 | 0.09 | 0.05 | 73 | 1006.6 |
| 20260505162607 | 55 | 68 | 2.0 | 4.0 | 0.00 | 0.09 | 0.05 | 72 | 1006.6 |
| 20260505162502 | 55 | 68 | 2.0 | 4.0 | 0.00 | 0.09 | 0.05 | 71 | 1006.6 |
| 20260505162107 | 55 | 65 | 2.0 | 5.0 | 0.00 | 0.09 | 0.05 | 71 | 1006.2 |
| 20260505162003 | 55 | 65 | 2.0 | 5.0 | 0.00 | 0.09 | 0.05 | 70 | 1006.2 |
| 20260505161607 | 55 | 64 | 2.0 | 5.0 | 0.00 | 0.09 | 0.05 | 72 | 1006.0 |
| 20260505161502 | 55 | 64 | 2.0 | 5.0 | 0.00 | 0.09 | 0.05 | 73 | 1005.9 |
| 20260505161107 | 55 | 64 | 3.0 | 5.0 | 0.00 | 0.09 | 0.05 | 72 | 1005.8 |
| 20260505161001 | 55 | 64 | 3.0 | 5.0 | 0.00 | 0.09 | 0.05 | 72 | 1005.7 |
| 20260505160607 | 55 | 66 | 3.0 | 5.0 | 0.00 | 0.09 | 0.05 | 72 | 1005.6 |
| 20260505160502 | 55 | 65 | 3.0 | 5.0 | 0.00 | 0.09 | 0.05 | 73 | 1005.6 |
| 20260505160107 | 55 | 64 | 2.0 | 5.0 | 0.00 | 0.09 | 0.05 | 71 | 1005.8 |
| 20260505153037 | 57 | 81 | 3.0 | 7.0 | 0.00 | 0.09 | 0.05 | 70 | 1005.6 |
| 20260505153002 | 57 | 81 | 3.0 | 7.0 | 0.00 | 0.09 | 0.05 | 70 | 1005.6 |
| 20260505152536 | 58 | 74 | 3.0 | 9.0 | 0.00 | 0.09 | 0.05 | 69 | 1005.3 |
| 20260505152502 | 58 | 74 | 3.0 | 9.0 | 0.00 | 0.09 | 0.05 | 69 | 1005.3 |
| 20260505152036 | 59 | 45 | 3.0 | 9.0 | 0.00 | 0.09 | 0.05 | 67 | 1005.1 |
| 20260505152002 | 59 | 44 | 3.0 | 9.0 | 0.00 | 0.09 | 0.05 | 67 | 1005.1 |
| 20260505151536 | 60 | 316 | 2.0 | 7.0 | 0.00 | 0.09 | 0.05 | 66 | 1005.2 |
| 20260505151502 | 60 | 315 | 2.0 | 7.0 | 0.00 | 0.09 | 0.05 | 66 | 1005.2 |
| 20260505151036 | 60 | 322 | 2.0 | 7.0 | 0.00 | 0.09 | 0.05 | 68 | 1005.2 |
| 20260505151023 | 60 | 322 | 2.0 | 7.0 | 0.00 | 0.09 | 0.05 | 68 | 1005.2 |
| 20260505150536 | 60 | 331 | 3.0 | 7.0 | 0.00 | 0.09 | 0.05 | 68 | 1005.1 |
| 20260505150502 | 60 | 331 | 3.0 | 7.0 | 0.00 | 0.09 | 0.05 | 68 | 1005.1 |
| 20260505140535 | 62 | 303 | 4.0 | 10.0 | 0.00 | 0.09 | 0.05 | 61 | 1004.4 |
| 20260505140502 | 62 | 302 | 4.0 | 10.0 | 0.00 | 0.09 | 0.05 | 61 | 1004.4 |
| 20260505125035 | 61 | 251 | 5.0 | 12.0 | 0.00 | 0.09 | 0.05 | 76 | 1003.0 |
| 20260505125002 | 61 | 251 | 5.0 | 12.0 | 0.00 | 0.09 | 0.05 | 76 | 1003.0 |
| 20260505124534 | 61 | 241 | 4.0 | 11.0 | 0.00 | 0.09 | 0.05 | 77 | 1002.6 |
| 20260505124502 | 61 | 242 | 4.0 | 11.0 | 0.00 | 0.09 | 0.05 | 77 | 1002.6 |
| 20260505124034 | 61 | 249 | 5.0 | 11.0 | 0.00 | 0.09 | 0.05 | 77 | 1002.8 |
| 20260505124002 | 61 | 249 | 5.0 | 11.0 | 0.00 | 0.09 | 0.05 | 77 | 1002.8 |
| 20260505123534 | 60 | 257 | 6.0 | 11.0 | 0.00 | 0.09 | 0.05 | 77 | 1002.9 |
| 20260505123502 | 60 | 257 | 6.0 | 11.0 | 0.00 | 0.09 | 0.05 | 77 | 1002.9 |
| 20260505123034 | 60 | 260 | 5.0 | 11.0 | 0.00 | 0.09 | 0.05 | 78 | 1003.1 |
| 20260505123003 | 60 | 260 | 5.0 | 11.0 | 0.00 | 0.09 | 0.05 | 78 | 1003.1 |
| 20260505122534 | 60 | 256 | 3.0 | 10.0 | 0.00 | 0.09 | 0.05 | 78 | 1003.1 |
| 20260505122502 | 60 | 256 | 3.0 | 10.0 | 0.00 | 0.09 | 0.05 | 78 | 1003.1 |
| 20260505122034 | 60 | 264 | 3.0 | 9.0 | 0.00 | 0.09 | 0.05 | 79 | 1002.7 |
| 20260505122002 | 60 | 264 | 3.0 | 9.0 | 0.00 | 0.09 | 0.05 | 79 | 1002.7 |
| 20260505121534 | 60 | 263 | 4.0 | 10.0 | 0.00 | 0.09 | 0.05 | 79 | 1002.9 |
| 20260505121502 | 60 | 263 | 4.0 | 10.0 | 0.00 | 0.09 | 0.05 | 79 | 1002.9 |
| 20260505121034 | 59 | 262 | 3.0 | 10.0 | 0.00 | 0.09 | 0.05 | 80 | 1003.0 |
| 20260505121024 | 59 | 262 | 3.0 | 10.0 | 0.00 | 0.09 | 0.05 | 80 | 1003.0 |
| 20260505120534 | 59 | 264 | 4.0 | 14.0 | 0.00 | 0.09 | 0.05 | 80 | 1002.9 |
| 20260505120523 | 60 | 264 | 4.0 | 14.0 | 0.00 | 0.09 | 0.05 | 80 | 1002.9 |
| 20260505120034 | 60 | 263 | 5.0 | 14.0 | 0.00 | 0.09 | 0.05 | 80 | 1003.0 |
| 20260505120003 | 60 | 263 | 5.0 | 14.0 | 0.00 | 0.09 | 0.05 | 80 | 1003.0 |
| 20260505115534 | 59 | 254 | 4.0 | 12.0 | 0.00 | 0.09 | 0.05 | 80 | 1002.9 |
| 20260505115502 | 59 | 254 | 4.0 | 12.0 | 0.00 | 0.09 | 0.05 | 80 | 1002.9 |
| 20260505115034 | 59 | 247 | 4.0 | 12.0 | 0.00 | 0.09 | 0.05 | 81 | 1002.8 |
| 20260505115003 | 59 | 247 | 4.0 | 12.0 | 0.00 | 0.09 | 0.05 | 81 | 1002.8 |
| 20260505114534 | 59 | 252 | 4.0 | 10.0 | 0.00 | 0.09 | 0.05 | 80 | 1002.9 |
| 20260505114523 | 59 | 252 | 4.0 | 10.0 | 0.00 | 0.09 | 0.05 | 80 | 1002.9 |
| 20260505114034 | 59 | 252 | 5.0 | 10.0 | 0.00 | 0.09 | 0.05 | 81 | 1002.7 |
| 20260505114002 | 59 | 252 | 5.0 | 10.0 | 0.00 | 0.09 | 0.05 | 81 | 1002.7 |
| 20260505113533 | 59 | 248 | 4.0 | 9.0 | 0.00 | 0.09 | 0.05 | 81 | 1002.4 |
| 20260505113502 | 59 | 248 | 4.0 | 9.0 | 0.00 | 0.09 | 0.05 | 81 | 1002.4 |
| 20260505113033 | 59 | 247 | 3.0 | 8.0 | 0.00 | 0.09 | 0.05 | 81 | 1002.2 |
| 20260505113002 | 59 | 247 | 3.0 | 8.0 | 0.00 | 0.09 | 0.05 | 81 | 1002.2 |
| 20260505112533 | 59 | 244 | 3.0 | 8.0 | 0.00 | 0.09 | 0.05 | 80 | 1002.0 |
| 20260505112503 | 59 | 244 | 3.0 | 8.0 | 0.00 | 0.09 | 0.05 | 80 | 1002.0 |
| 20260505112033 | 59 | 249 | 3.0 | 8.0 | 0.00 | 0.09 | 0.05 | 80 | 1001.8 |
| 20260505112002 | 59 | 249 | 3.0 | 8.0 | 0.00 | 0.09 | 0.05 | 80 | 1001.8 |
| 20260505111533 | 59 | 259 | 3.0 | 8.0 | 0.00 | 0.09 | 0.05 | 80 | 1001.7 |
| 20260505111502 | 59 | 259 | 3.0 | 8.0 | 0.00 | 0.09 | 0.05 | 80 | 1001.7 |
| 20260505111033 | 59 | 261 | 5.0 | 12.0 | 0.00 | 0.09 | 0.05 | 80 | 1001.6 |
| 20260505111002 | 59 | 261 | 5.0 | 12.0 | 0.00 | 0.09 | 0.05 | 80 | 1001.6 |
| 20260505110533 | 59 | 259 | 5.0 | 12.0 | 0.00 | 0.09 | 0.05 | 80 | 1001.7 |
| 20260505110502 | 59 | 259 | 5.0 | 12.0 | 0.00 | 0.09 | 0.05 | 80 | 1001.7 |
| 20260505102032 | 59 | 250 | 6.0 | 15.0 | 0.00 | 0.09 | 0.05 | 81 | 1000.7 |
| 20260505102002 | 59 | 250 | 6.0 | 15.0 | 0.00 | 0.09 | 0.05 | 81 | 1000.7 |
| 20260505101532 | 59 | 241 | 6.0 | 18.0 | 0.00 | 0.09 | 0.05 | 81 | 1000.7 |
| 20260505101503 | 59 | 241 | 6.0 | 18.0 | 0.00 | 0.09 | 0.05 | 81 | 1000.7 |
| 20260505101032 | 59 | 240 | 6.0 | 18.0 | 0.00 | 0.09 | 0.05 | 81 | 1000.8 |
| 20260505101002 | 59 | 240 | 6.0 | 18.0 | 0.00 | 0.09 | 0.05 | 82 | 1000.8 |
| 20260505100532 | 59 | 244 | 5.0 | 13.0 | 0.00 | 0.09 | 0.05 | 82 | 1000.6 |
| 20260505100503 | 59 | 244 | 5.0 | 13.0 | 0.00 | 0.09 | 0.05 | 82 | 1000.6 |
| 20260505100032 | 59 | 240 | 5.0 | 13.0 | 0.00 | 0.09 | 0.05 | 82 | 1000.6 |
| 20260505100002 | 59 | 240 | 5.0 | 13.0 | 0.00 | 0.09 | 0.05 | 82 | 1000.6 |
| 20260505095532 | 59 | 238 | 5.0 | 14.0 | 0.00 | 0.09 | 0.05 | 82 | 1000.6 |
| 20260505095502 | 59 | 238 | 5.0 | 14.0 | 0.00 | 0.09 | 0.05 | 82 | 1000.6 |
| 20260505095032 | 59 | 243 | 5.0 | 14.0 | 0.00 | 0.09 | 0.05 | 82 | 1000.6 |
| 20260505095002 | 59 | 243 | 5.0 | 14.0 | 0.00 | 0.09 | 0.05 | 82 | 1000.6 |
| 20260505094532 | 59 | 251 | 5.0 | 19.0 | 0.00 | 0.09 | 0.05 | 82 | 1000.5 |
| 20260505094502 | 59 | 251 | 5.0 | 19.0 | 0.00 | 0.09 | 0.05 | 82 | 1000.5 |
| 20260505094032 | 59 | 248 | 6.0 | 19.0 | 0.00 | 0.09 | 0.05 | 82 | 1000.6 |
| 20260505094003 | 59 | 248 | 6.0 | 19.0 | 0.00 | 0.09 | 0.05 | 82 | 1000.6 |
| 20260505093532 | 59 | 240 | 6.0 | 16.0 | 0.00 | 0.09 | 0.05 | 82 | 1000.4 |
| 20260505093503 | 59 | 240 | 6.0 | 16.0 | 0.00 | 0.09 | 0.05 | 82 | 1000.4 |
| 20260505093032 | 59 | 239 | 6.0 | 13.0 | 0.00 | 0.09 | 0.05 | 83 | 1000.4 |
| 20260505093002 | 59 | 239 | 6.0 | 13.0 | 0.00 | 0.09 | 0.05 | 83 | 1000.4 |
| 20260505092532 | 59 | 243 | 5.0 | 13.0 | 0.00 | 0.09 | 0.05 | 83 | 1000.3 |
| 20260505092524 | 59 | 243 | 5.0 | 13.0 | 0.00 | 0.09 | 0.05 | 83 | 1000.3 |
| 20260505092032 | 59 | 239 | 5.0 | 11.0 | 0.00 | 0.09 | 0.05 | 83 | 1000.3 |
| 20260505092003 | 59 | 239 | 5.0 | 11.0 | 0.00 | 0.09 | 0.05 | 83 | 1000.3 |
| 20260505091532 | 59 | 230 | 5.0 | 11.0 | 0.00 | 0.09 | 0.05 | 83 | 1000.3 |
| 20260505091524 | 59 | 230 | 5.0 | 11.0 | 0.00 | 0.09 | 0.05 | 83 | 1000.3 |
| 20260505091032 | 59 | 217 | 5.0 | 10.0 | 0.00 | 0.09 | 0.05 | 83 | 1000.2 |
| 20260505091002 | 59 | 217 | 5.0 | 10.0 | 0.00 | 0.09 | 0.05 | 83 | 1000.2 |